CW3175 Weather Reports


time (UTC)temp
F
wind
direction
speed
knots
gust
knots
rain 1hr
in
rain 24hr
in
rain mn
in
humidity
%
barometer
mb
20160929202436 66 31 8.7 17.4 0.00 0.75 0.57 81 1019.4
20160929200936 66 87 9.6 16.5 0.00 0.75 0.57 81 1019.4
20160929195437 66 48 8.7 16.5 0.00 0.75 0.57 82 1019.5
20160929193936 65 38 7.8 16.5 0.00 0.76 0.57 82 1019.1
20160929192436 65 36 7.8 15.6 0.00 0.76 0.57 82 1019.2
20160929190937 65 54 7.8 17.4 0.00 0.77 0.57 83 1019.2
20160929185434 65 20 7.0 13.9 0.00 0.78 0.57 87 1019.4
20160929183935 64 31 7.0 15.6 0.03 0.80 0.57 90 1019.2
20160929182429 64 39 8.7 21.7 0.07 0.80 0.57 92 1019.2
20160929180934 63 29 8.7 16.5 0.08 0.80 0.57 94 1019.4
20160929175428 63 55 7.0 15.6 0.08 0.80 0.57 95 1019.2
20160929173936 63 60 7.0 17.4 0.06 0.77 0.54 93 1019.1
20160929172424 63 329 7.8 15.6 0.03 0.73 0.50 91 1019.1
20160929170923 63 15 7.8 17.4 0.02 0.72 0.49 91 1019.4
20160929165424 63 12 8.7 16.5 0.02 0.72 0.49 90 1019.4
20160929163924 64 26 7.8 17.4 0.01 0.71 0.48 88 1019.5
20160929162425 65 58 7.8 16.5 0.00 0.70 0.47 84 1019.5
20160929160921 64 28 6.1 13.0 0.00 0.71 0.47 85 1019.1
20160929155419 64 62 7.8 17.4 0.01 0.72 0.47 86 1019.1
20160929153921 64 15 8.7 16.5 0.01 0.75 0.47 85 1019.1
20160929152418 63 30 7.0 14.8 0.01 0.75 0.47 87 1019.0
20160929150915 63 26 6.1 14.8 0.01 0.75 0.47 88 1018.9
20160929145423 63 51 7.0 14.8 0.00 0.74 0.46 87 1018.6
20160929143911 64 46 7.0 15.6 0.00 0.74 0.46 86 1018.6
20160929142412 64 49 9.6 21.7 0.00 0.74 0.46 85 1018.2
20160929140912 64 55 11.3 20.0 0.00 0.74 0.46 84 1018.2
20160929135411 64 19 9.6 19.1 0.00 0.74 0.46 83 1018.1
20160929133911 64 42 10.4 17.4 0.00 0.74 0.46 83 1018.1
20160929132411 64 107 10.4 22.6 0.00 0.74 0.46 83 1017.9
20160929130908 64 30 9.6 18.2 0.00 0.74 0.46 82 1017.9
20160929125407 64 18 8.7 16.5 0.00 0.74 0.46 81 1017.6
20160929123904 64 0 7.0 15.6 0.00 0.74 0.46 82 1017.7
20160929122402 64 36 7.0 12.2 0.00 0.74 0.46 82 1017.4
20160929120903 64 351 6.1 13.0 0.00 0.74 0.46 82 1017.2
20160929115402 64 38 7.0 13.0 0.00 0.74 0.46 82 1017.2
20160929113859 64 346 4.3 13.9 0.00 0.74 0.46 82 1017.1
20160929112357 64 37 7.0 15.6 0.00 0.74 0.46 79 1017.1
20160929110856 64 49 7.8 19.1 0.00 0.74 0.46 78 1016.9
20160929105354 64 55 7.8 16.5 0.00 0.74 0.46 78 1016.7
20160929103853 64 46 8.7 17.4 0.00 0.74 0.46 79 1016.6
20160929102352 64 42 8.7 18.2 0.00 0.74 0.46 78 1016.6
20160929100853 64 69 8.7 19.1 0.00 0.74 0.46 78 1016.3
20160929095353 64 14 7.8 17.4 0.00 0.74 0.46 80 1016.1
20160929093851 64 48 7.0 15.6 0.00 0.74 0.46 80 1016.0
20160929092347 64 28 7.0 14.8 0.00 0.76 0.46 80 1015.8
20160929090848 64 29 7.8 13.9 0.00 0.77 0.46 79 1015.6
20160929085348 64 32 9.6 20.0 0.00 0.77 0.46 78 1015.5
20160929083848 64 30 8.7 15.6 0.00 0.77 0.46 80 1015.5
20160929082350 64 11 7.0 13.9 0.00 0.77 0.46 79 1015.6
20160929080847 64 31 8.7 16.5 0.00 0.77 0.46 78 1015.5
20160929075345 64 71 5.2 14.8 0.00 0.77 0.46 79 1015.4
20160929073842 64 42 9.6 18.2 0.00 0.77 0.46 78 1015.3
20160929072341 64 0 8.7 19.1 0.00 0.77 0.46 78 1015.4
20160929070842 64 42 8.7 18.2 0.00 0.77 0.46 79 1015.3
20160929065342 64 21 7.0 17.4 0.00 0.77 0.46 79 1015.1
20160929063843 64 351 9.6 16.5 0.00 0.77 0.46 78 1015.2
20160929062341 64 28 7.8 16.5 0.00 0.77 0.46 77 1015.1
20160929060839 64 19 7.0 13.9 0.00 0.77 0.46 74 1015.4
20160929055337 64 28 7.0 16.5 0.00 0.77 0.46 73 1015.5
20160929053834 64 55 4.3 12.2 0.00 0.77 0.46 74 1015.5
20160929052331 64 40 6.1 15.6 0.00 0.77 0.46 75 1015.5
20160929050830 64 50 10.4 18.2 0.00 0.77 0.46 75 1015.5
20160929045329 64 24 8.7 19.1 0.00 0.77 0.46 73 1015.7
20160929043827 64 49 6.1 16.5 0.00 0.77 0.46 73 1015.6
20160929042324 63 44 7.0 17.4 0.00 0.77 0.46 74 1015.6
20160929040822 63 62 8.7 19.1 0.00 0.77 0.46 76 1015.6
20160929035320 63 16 7.0 13.9 0.00 0.77 0.46 75 1015.6
20160929033819 63 19 7.8 19.1 0.00 0.77 0.46 75 1015.6
20160929032320 62 59 6.1 14.8 0.01 0.77 0.46 76 1015.5
20160929030815 62 32 4.3 14.8 0.01 0.77 0.46 78 1015.5
20160929025316 61 29 5.2 20.0 0.01 0.77 0.46 81 1015.7
20160929023814 61 9 8.7 22.6 0.16 0.77 0.46 77 1015.3
20160929022313 59 0 4.3 15.6 0.35 0.76 0.45 91 1015.5
20160929020814 57 17 2.6 10.4 0.40 0.76 0.45 96 1015.6
20160929015241 56 28 2.6 13.0 0.39 0.75 0.44 95 1015.4
20160929013738 56 351 5.2 15.6 0.27 0.59 0.29 94 1015.6
20160929012237 56 0 6.1 13.9 0.09 0.40 0.10 94 1015.1
20160929010734 56 26 3.5 11.3 0.05 0.36 0.05 94 1015.4
20160929005234 56 313 1.7 11.3 0.05 0.36 0.05 93 1015.5
20160929003729 56 18 5.2 13.0 0.03 0.32 0.01 92 1015.3
20160929002230 58 0 3.5 13.0 0.04 0.31 0.00 91 1015.2
20160929000728 58 344 0.9 7.8 0.11 0.31 0.00 90 1015.2
20160928235225 58 5 4.3 13.0 0.17 0.31 0.31 87 1014.9
20160928233716 58 19 8.7 18.2 0.15 0.29 0.29 84 1014.8
20160928232213 58 0 7.8 15.6 0.13 0.27 0.27 85 1014.6
20160928230712 59 38 6.1 14.8 0.07 0.20 0.22 86 1014.2
20160928225212 59 11 5.2 12.2 0.01 0.14 0.14 84 1013.6
20160928223706 59 5 2.6 10.4 0.01 0.14 0.14 83 1013.7
20160928222202 59 18 3.5 13.9 0.01 0.14 0.14 84 1013.4
20160928220702 59 19 3.5 12.2 0.00 0.13 0.13 84 1013.1
20160928215200 58 328 2.6 12.2 0.00 0.13 0.13 85 1013.1
20160928213700 57 337 2.6 13.0 0.00 0.13 0.13 85 1013.0
20160928212200 57 0 1.7 8.7 0.00 0.13 0.13 84 1012.9
20160928210656 56 312 2.6 9.6 0.00 0.13 0.13 86 1012.7
20160928205152 56 346 2.6 12.2 0.00 0.13 0.13 87 1012.5
20160928203651 56 20 3.5 13.0 0.01 0.13 0.13 89 1012.4